VHEDW YCNY-YCCY

Flight info

Callsign VHEDW
Flight time 1h 20m
Altitude 3500
Route YRLH YBMA MKN
Aircraft BE58/L-SDFG/C

Departure

Time 2026-04-26 09:03
Airport Century Mine Airport (YCNY)

Arrival

Time 2026-04-26 10:23
Airport Cloncurry Airport (YCCY)
Time Latitude Longitude Altitude Speed Heading
2026-04-26 08:48 -18.75611 138.70543 429 ft 0 kts 321°
2026-04-26 09:00 -18.75610 138.70543 429 ft 0 kts 321°
2026-04-26 09:00 -18.75585 138.70522 429 ft 7 kts 323°
2026-04-26 09:01 -18.75535 138.70508 429 ft 6 kts 47°
2026-04-26 09:01 -18.75510 138.70540 429 ft 5 kts 50°
2026-04-26 09:01 -18.75484 138.70575 429 ft 6 kts 75°
2026-04-26 09:01 -18.75533 138.70630 429 ft 34 kts 141°
2026-04-26 09:02 -18.75921 138.70956 431 ft 98 kts 141°
2026-04-26 09:02 -18.76513 138.71445 567 ft 122 kts 138°
2026-04-26 09:02 -18.77184 138.72093 774 ft 137 kts 136°
2026-04-26 09:02 -18.77916 138.72771 972 ft 143 kts 138°
2026-04-26 09:03 -18.78700 138.73456 1132 ft 147 kts 139°
2026-04-26 09:03 -18.79487 138.74127 1354 ft 142 kts 139°
2026-04-26 09:03 -18.80252 138.74773 1572 ft 140 kts 139°
2026-04-26 09:03 -18.81008 138.75407 1786 ft 137 kts 139°
2026-04-26 09:04 -18.81760 138.76038 1989 ft 139 kts 139°
2026-04-26 09:04 -18.82523 138.76678 2208 ft 141 kts 140°
2026-04-26 09:04 -18.83306 138.77335 2429 ft 143 kts 139°
2026-04-26 09:04 -18.84083 138.77983 2654 ft 143 kts 139°
2026-04-26 09:05 -18.84866 138.78641 2875 ft 143 kts 139°
2026-04-26 09:05 -18.85645 138.79292 3100 ft 143 kts 139°
2026-04-26 09:05 -18.86427 138.79948 3311 ft 144 kts 139°
2026-04-26 09:05 -18.87223 138.80615 3450 ft 149 kts 139°
2026-04-26 09:06 -18.88066 138.81313 3533 ft 155 kts 143°
2026-04-26 09:06 -18.89149 138.81534 3535 ft 171 kts 184°
2026-04-26 09:06 -18.90312 138.81111 3528 ft 178 kts 197°
2026-04-26 09:06 -18.91445 138.80580 3529 ft 177 kts 198°
2026-04-26 09:07 -18.92564 138.80045 3528 ft 176 kts 199°
2026-04-26 09:07 -18.93691 138.79500 3527 ft 176 kts 199°
2026-04-26 09:07 -18.94801 138.78963 3523 ft 175 kts 199°
2026-04-26 09:07 -18.95919 138.78421 3517 ft 175 kts 199°
2026-04-26 09:08 -18.97025 138.77885 3514 ft 176 kts 199°
2026-04-26 09:08 -18.98138 138.77318 3510 ft 177 kts 205°
2026-04-26 09:08 -18.99161 138.76593 3512 ft 178 kts 209°
2026-04-26 09:08 -19.00186 138.75832 3512 ft 178 kts 209°
2026-04-26 09:09 -19.01214 138.75072 3513 ft 179 kts 208°
2026-04-26 09:09 -19.02229 138.74322 3511 ft 178 kts 209°
2026-04-26 09:09 -19.03327 138.73801 3516 ft 170 kts 183°
2026-04-26 09:09 -19.04503 138.73718 3517 ft 168 kts 175°
2026-04-26 09:10 -19.05665 138.73695 3515 ft 168 kts 176°
2026-04-26 09:10 -19.06848 138.73675 3517 ft 168 kts 175°
2026-04-26 09:10 -19.08027 138.73657 3517 ft 168 kts 175°
2026-04-26 09:10 -19.09198 138.73639 3518 ft 169 kts 175°
2026-04-26 09:11 -19.10381 138.73621 3517 ft 169 kts 175°
2026-04-26 09:11 -19.11557 138.73602 3519 ft 170 kts 175°
2026-04-26 09:11 -19.12759 138.73584 3520 ft 170 kts 176°
2026-04-26 09:11 -19.13942 138.73566 3518 ft 169 kts 175°
2026-04-26 09:12 -19.15125 138.73543 3522 ft 169 kts 176°
2026-04-26 09:12 -19.16304 138.73500 3521 ft 169 kts 176°
2026-04-26 09:12 -19.17482 138.73459 3520 ft 169 kts 176°
2026-04-26 09:12 -19.18670 138.73416 3522 ft 169 kts 176°
2026-04-26 09:13 -19.19843 138.73375 3524 ft 169 kts 177°
2026-04-26 09:13 -19.21031 138.73332 3525 ft 169 kts 176°
2026-04-26 09:13 -19.22206 138.73291 3523 ft 169 kts 176°
2026-04-26 09:13 -19.23397 138.73250 3526 ft 169 kts 177°
2026-04-26 09:14 -19.24578 138.73207 3525 ft 169 kts 177°
2026-04-26 09:14 -19.25669 138.73494 3529 ft 161 kts 144°
2026-04-26 09:14 -19.26561 138.74214 3528 ft 161 kts 138°
2026-04-26 09:14 -19.27420 138.74973 3528 ft 161 kts 137°
2026-04-26 09:15 -19.28278 138.75740 3527 ft 161 kts 136°
2026-04-26 09:15 -19.29141 138.76517 3528 ft 162 kts 137°
2026-04-26 09:15 -19.29996 138.77290 3528 ft 162 kts 137°
2026-04-26 09:15 -19.30855 138.78070 3528 ft 161 kts 136°
2026-04-26 09:16 -19.31704 138.78841 3529 ft 161 kts 136°
2026-04-26 09:16 -19.32552 138.79613 3533 ft 161 kts 137°
2026-04-26 09:16 -19.33411 138.80392 3535 ft 161 kts 136°
2026-04-26 09:16 -19.34267 138.81174 3536 ft 161 kts 137°
2026-04-26 09:17 -19.35118 138.81950 3537 ft 161 kts 137°
2026-04-26 09:17 -19.35858 138.82817 3536 ft 160 kts 127°
2026-04-26 09:17 -19.36546 138.83758 3532 ft 160 kts 126°
2026-04-26 09:17 -19.37221 138.84686 3536 ft 160 kts 126°
2026-04-26 09:18 -19.37903 138.85622 3536 ft 159 kts 126°
2026-04-26 09:18 -19.38585 138.86559 3538 ft 159 kts 126°
2026-04-26 09:18 -19.39261 138.87486 3534 ft 160 kts 126°
2026-04-26 09:18 -19.40019 138.88347 3530 ft 163 kts 147°
2026-04-26 09:19 -19.41162 138.88480 3543 ft 172 kts 188°
2026-04-26 09:19 -19.42299 138.88046 3538 ft 175 kts 197°
2026-04-26 09:19 -19.43429 138.87541 3537 ft 176 kts 198°
2026-04-26 09:19 -19.44563 138.87019 3538 ft 176 kts 198°
2026-04-26 09:20 -19.45682 138.86499 3539 ft 176 kts 198°
2026-04-26 09:20 -19.46804 138.85971 3541 ft 175 kts 198°
2026-04-26 09:20 -19.47926 138.85442 3541 ft 175 kts 198°
2026-04-26 09:20 -19.49047 138.84909 3542 ft 176 kts 198°
2026-04-26 09:21 -19.50160 138.84381 3542 ft 176 kts 198°
2026-04-26 09:21 -19.51281 138.83849 3541 ft 176 kts 199°
2026-04-26 09:21 -19.52392 138.83321 3543 ft 176 kts 199°
2026-04-26 09:21 -19.53516 138.82785 3542 ft 176 kts 199°
2026-04-26 09:22 -19.54639 138.82250 3542 ft 176 kts 198°
2026-04-26 09:22 -19.55766 138.81712 3544 ft 176 kts 199°
2026-04-26 09:22 -19.56907 138.81274 3544 ft 173 kts 186°
2026-04-26 09:22 -19.58086 138.81067 3545 ft 172 kts 184°
2026-04-26 09:23 -19.59286 138.80875 3546 ft 172 kts 184°
2026-04-26 09:23 -19.60464 138.80685 3547 ft 172 kts 184°
2026-04-26 09:23 -19.61662 138.80492 3545 ft 172 kts 183°
2026-04-26 09:23 -19.62843 138.80301 3547 ft 172 kts 183°
2026-04-26 09:24 -19.64039 138.80109 3546 ft 172 kts 183°
2026-04-26 09:24 -19.65236 138.80000 3478 ft 173 kts 176°
2026-04-26 09:24 -19.66445 138.79985 3467 ft 172 kts 175°
2026-04-26 09:24 -19.67631 138.79974 3467 ft 171 kts 175°
2026-04-26 09:25 -19.68830 138.79964 3470 ft 170 kts 175°
2026-04-26 09:25 -19.70015 138.79953 3474 ft 170 kts 175°
2026-04-26 09:25 -19.71201 138.79942 3473 ft 170 kts 175°
2026-04-26 09:25 -19.72398 138.79923 3471 ft 170 kts 176°
2026-04-26 09:26 -19.73577 138.79898 3473 ft 171 kts 176°
2026-04-26 09:26 -19.74779 138.79874 3473 ft 171 kts 176°
2026-04-26 09:26 -19.75962 138.79848 3479 ft 171 kts 175°
2026-04-26 09:26 -19.77157 138.79788 3484 ft 171 kts 180°
2026-04-26 09:27 -19.78362 138.79675 3485 ft 171 kts 180°
2026-04-26 09:27 -19.79552 138.79562 3485 ft 171 kts 180°
2026-04-26 09:27 -19.80742 138.79450 3484 ft 171 kts 180°
2026-04-26 09:27 -19.81937 138.79338 3487 ft 171 kts 180°
2026-04-26 09:28 -19.83127 138.79225 3485 ft 171 kts 180°
2026-04-26 09:28 -19.84322 138.79112 3487 ft 171 kts 180°
2026-04-26 09:28 -19.85512 138.79001 3484 ft 171 kts 180°
2026-04-26 09:28 -19.86707 138.78888 3487 ft 171 kts 179°
2026-04-26 09:29 -19.87901 138.78777 3485 ft 170 kts 180°
2026-04-26 09:29 -19.89096 138.78664 3488 ft 170 kts 180°
2026-04-26 09:29 -19.90279 138.78563 3486 ft 170 kts 178°
2026-04-26 09:29 -19.91459 138.78477 3487 ft 171 kts 179°
2026-04-26 09:30 -19.92648 138.78392 3487 ft 171 kts 178°
2026-04-26 09:30 -19.93849 138.78305 3491 ft 171 kts 178°
2026-04-26 09:30 -19.95033 138.78221 3493 ft 171 kts 179°
2026-04-26 09:30 -19.96237 138.78134 3493 ft 171 kts 179°
2026-04-26 09:31 -19.97424 138.78049 3493 ft 171 kts 179°
2026-04-26 09:31 -19.98624 138.77962 3494 ft 171 kts 179°
2026-04-26 09:31 -19.99811 138.77852 3491 ft 173 kts 185°
2026-04-26 09:31 -20.00991 138.77548 3494 ft 174 kts 189°
2026-04-26 09:32 -20.02161 138.77219 3493 ft 173 kts 189°
2026-04-26 09:32 -20.03333 138.76888 3492 ft 173 kts 189°
2026-04-26 09:32 -20.04514 138.76555 3491 ft 173 kts 189°
2026-04-26 09:32 -20.05681 138.76318 3484 ft 168 kts 170°
2026-04-26 09:33 -20.06667 138.76878 3495 ft 161 kts 128°
2026-04-26 09:33 -20.07209 138.77904 3498 ft 160 kts 115°
2026-04-26 09:33 -20.07664 138.78979 3493 ft 160 kts 113°
2026-04-26 09:33 -20.08122 138.80074 3489 ft 161 kts 119°
2026-04-26 09:34 -20.08906 138.80931 3496 ft 162 kts 137°
2026-04-26 09:34 -20.09777 138.81699 3492 ft 163 kts 138°
2026-04-26 09:34 -20.10650 138.82465 3496 ft 163 kts 138°
2026-04-26 09:34 -20.11534 138.83241 3496 ft 163 kts 138°
2026-04-26 09:35 -20.12404 138.84009 3496 ft 163 kts 138°
2026-04-26 09:35 -20.13275 138.84776 3494 ft 163 kts 137°
2026-04-26 09:35 -20.14153 138.85550 3498 ft 162 kts 138°
2026-04-26 09:35 -20.15019 138.86316 3497 ft 162 kts 138°
2026-04-26 09:36 -20.15887 138.87083 3496 ft 162 kts 138°
2026-04-26 09:36 -20.16767 138.87860 3497 ft 162 kts 138°
2026-04-26 09:36 -20.17635 138.88626 3495 ft 162 kts 138°
2026-04-26 09:36 -20.18502 138.89394 3498 ft 162 kts 137°
2026-04-26 09:37 -20.19377 138.90167 3499 ft 162 kts 137°
2026-04-26 09:37 -20.20245 138.90935 3496 ft 162 kts 137°
2026-04-26 09:37 -20.21112 138.91701 3497 ft 162 kts 137°
2026-04-26 09:37 -20.21983 138.92476 3499 ft 162 kts 135°
2026-04-26 09:38 -20.22626 138.93460 3499 ft 160 kts 118°
2026-04-26 09:38 -20.23155 138.94501 3497 ft 161 kts 117°
2026-04-26 09:38 -20.23685 138.95554 3501 ft 161 kts 117°
2026-04-26 09:38 -20.24213 138.96602 3499 ft 161 kts 118°
2026-04-26 09:39 -20.24742 138.97655 3499 ft 161 kts 118°
2026-04-26 09:39 -20.25217 138.98726 3495 ft 161 kts 109°
2026-04-26 09:39 -20.25541 138.99875 3497 ft 161 kts 107°
2026-04-26 09:39 -20.25850 139.01022 3496 ft 161 kts 107°
2026-04-26 09:40 -20.26159 139.02165 3498 ft 161 kts 107°
2026-04-26 09:40 -20.26538 139.03270 3494 ft 161 kts 123°
2026-04-26 09:40 -20.27299 139.04161 3498 ft 161 kts 133°
2026-04-26 09:40 -20.28099 139.04991 3500 ft 161 kts 134°
2026-04-26 09:41 -20.28908 139.05821 3500 ft 162 kts 134°
2026-04-26 09:41 -20.29729 139.06662 3501 ft 162 kts 134°
2026-04-26 09:41 -20.30548 139.07500 3500 ft 162 kts 134°
2026-04-26 09:41 -20.31357 139.08333 3497 ft 162 kts 131°
2026-04-26 09:42 -20.31983 139.09337 3498 ft 161 kts 119°
2026-04-26 09:42 -20.32529 139.10382 3502 ft 161 kts 118°
2026-04-26 09:42 -20.33073 139.11429 3502 ft 161 kts 118°
2026-04-26 09:42 -20.33616 139.12474 3500 ft 161 kts 118°
2026-04-26 09:43 -20.34157 139.13515 3503 ft 160 kts 119°
2026-04-26 09:43 -20.34697 139.14554 3505 ft 160 kts 118°
2026-04-26 09:43 -20.35243 139.15601 3503 ft 160 kts 118°
2026-04-26 09:43 -20.35778 139.16637 3505 ft 160 kts 116°
2026-04-26 09:44 -20.36056 139.17772 3507 ft 160 kts 101°
2026-04-26 09:44 -20.36224 139.18962 3504 ft 160 kts 99°
2026-04-26 09:44 -20.36386 139.20136 3506 ft 160 kts 100°
2026-04-26 09:44 -20.36548 139.21312 3506 ft 161 kts 99°
2026-04-26 09:45 -20.36709 139.22484 3512 ft 161 kts 99°
2026-04-26 09:45 -20.36873 139.23669 3508 ft 161 kts 99°
2026-04-26 09:45 -20.37035 139.24850 3508 ft 161 kts 100°
2026-04-26 09:45 -20.37197 139.26025 3509 ft 161 kts 100°
2026-04-26 09:46 -20.37369 139.27212 3510 ft 161 kts 102°
2026-04-26 09:46 -20.37573 139.28387 3506 ft 161 kts 102°
2026-04-26 09:46 -20.37776 139.29553 3509 ft 161 kts 102°
2026-04-26 09:46 -20.37981 139.30727 3507 ft 161 kts 102°
2026-04-26 09:47 -20.38185 139.31895 3507 ft 161 kts 102°
2026-04-26 09:47 -20.38390 139.33075 3509 ft 161 kts 102°
2026-04-26 09:47 -20.38595 139.34248 3510 ft 161 kts 102°
2026-04-26 09:47 -20.38899 139.35376 3503 ft 160 kts 123°
2026-04-26 09:48 -20.39742 139.36142 3512 ft 161 kts 144°
2026-04-26 09:48 -20.40702 139.36781 3510 ft 162 kts 145°
2026-04-26 09:48 -20.41673 139.37408 3508 ft 162 kts 146°
2026-04-26 09:48 -20.42637 139.38025 3508 ft 162 kts 146°
2026-04-26 09:49 -20.43618 139.38646 3518 ft 162 kts 146°
2026-04-26 09:49 -20.44587 139.39259 3511 ft 162 kts 146°
2026-04-26 09:49 -20.45555 139.39868 3511 ft 162 kts 147°
2026-04-26 09:49 -20.46538 139.40486 3515 ft 162 kts 147°
2026-04-26 09:50 -20.47519 139.41103 3515 ft 163 kts 147°
2026-04-26 09:50 -20.48375 139.41873 3512 ft 161 kts 134°
2026-04-26 09:50 -20.49155 139.42732 3514 ft 160 kts 132°
2026-04-26 09:50 -20.49936 139.43594 3520 ft 160 kts 132°
2026-04-26 09:51 -20.50709 139.44450 3513 ft 161 kts 132°
2026-04-26 09:51 -20.51491 139.45314 3519 ft 161 kts 132°
2026-04-26 09:51 -20.52272 139.46178 3520 ft 161 kts 132°
2026-04-26 09:51 -20.53056 139.47044 3518 ft 161 kts 133°
2026-04-26 09:52 -20.53834 139.47903 3519 ft 161 kts 133°
2026-04-26 09:52 -20.56021 139.48491 3519 ft 168 kts 173°
2026-04-26 09:52 -20.57191 139.48544 3517 ft 169 kts 173°
2026-04-26 09:53 -20.58379 139.48592 3516 ft 169 kts 173°
2026-04-26 09:53 -20.59557 139.48634 3514 ft 169 kts 174°
2026-04-26 09:53 -20.60745 139.48677 3514 ft 169 kts 174°
2026-04-26 09:53 -20.61913 139.48715 3512 ft 169 kts 173°
2026-04-26 09:54 -20.63098 139.48753 3517 ft 168 kts 174°
2026-04-26 09:54 -20.64271 139.48791 3515 ft 168 kts 174°
2026-04-26 09:54 -20.65447 139.48830 3516 ft 169 kts 173°
2026-04-26 09:54 -20.66633 139.48914 3514 ft 167 kts 167°
2026-04-26 09:55 -20.67784 139.49129 3517 ft 167 kts 166°
2026-04-26 09:55 -20.68927 139.49355 3518 ft 167 kts 165°
2026-04-26 09:55 -20.70077 139.49582 3517 ft 167 kts 166°
2026-04-26 09:55 -20.71207 139.49850 3507 ft 165 kts 153°
2026-04-26 09:56 -20.71928 139.50723 3513 ft 160 kts 108°
2026-04-26 09:56 -20.71901 139.51921 3519 ft 163 kts 82°
2026-04-26 09:56 -20.71638 139.53096 3513 ft 163 kts 79°
2026-04-26 09:56 -20.71339 139.54275 3513 ft 164 kts 78°
2026-04-26 09:57 -20.71027 139.55438 3504 ft 164 kts 77°
2026-04-26 09:57 -20.70704 139.56598 3511 ft 163 kts 77°
2026-04-26 09:57 -20.70372 139.57767 3510 ft 163 kts 77°
2026-04-26 09:57 -20.70149 139.58945 3510 ft 160 kts 94°
2026-04-26 09:58 -20.70267 139.60117 3515 ft 160 kts 99°
2026-04-26 09:58 -20.70423 139.61304 3513 ft 160 kts 99°
2026-04-26 09:58 -20.70579 139.62482 3517 ft 161 kts 100°
2026-04-26 09:58 -20.70734 139.63663 3514 ft 161 kts 99°
2026-04-26 09:59 -20.70814 139.64876 3508 ft 162 kts 95°
2026-04-26 09:59 -20.70870 139.66064 3509 ft 162 kts 95°
2026-04-26 09:59 -20.70925 139.67264 3511 ft 161 kts 95°
2026-04-26 09:59 -20.70982 139.68472 3514 ft 162 kts 95°
2026-04-26 10:00 -20.71037 139.69663 3511 ft 162 kts 95°
2026-04-26 10:00 -20.71094 139.70872 3511 ft 162 kts 95°
2026-04-26 10:00 -20.71210 139.72067 3508 ft 161 kts 99°
2026-04-26 10:00 -20.71372 139.73251 3508 ft 161 kts 100°
2026-04-26 10:01 -20.71535 139.74431 3506 ft 161 kts 100°
2026-04-26 10:01 -20.71698 139.75619 3508 ft 161 kts 100°
2026-04-26 10:01 -20.71861 139.76807 3509 ft 161 kts 100°
2026-04-26 10:01 -20.72028 139.77992 3510 ft 161 kts 103°
2026-04-26 10:02 -20.72517 139.79045 3511 ft 160 kts 123°
2026-04-26 10:02 -20.73150 139.80035 3512 ft 160 kts 124°
2026-04-26 10:02 -20.73781 139.81009 3514 ft 160 kts 124°
2026-04-26 10:02 -20.74423 139.81998 3511 ft 160 kts 124°
2026-04-26 10:03 -20.75057 139.82973 3516 ft 160 kts 124°
2026-04-26 10:03 -20.75575 139.84021 3509 ft 160 kts 105°
2026-04-26 10:03 -20.75747 139.85188 3507 ft 160 kts 99°
2026-04-26 10:03 -20.75883 139.86374 3512 ft 160 kts 99°
2026-04-26 10:04 -20.76015 139.87543 3511 ft 161 kts 99°
2026-04-26 10:04 -20.76147 139.88734 3509 ft 160 kts 99°
2026-04-26 10:04 -20.76286 139.89908 3509 ft 159 kts 102°
2026-04-26 10:04 -20.76549 139.91066 3513 ft 159 kts 106°
2026-04-26 10:05 -20.76832 139.92212 3517 ft 160 kts 106°
2026-04-26 10:05 -20.77115 139.93358 3518 ft 160 kts 106°
2026-04-26 10:05 -20.77398 139.94508 3511 ft 160 kts 106°
2026-04-26 10:05 -20.77682 139.95659 3514 ft 159 kts 105°
2026-04-26 10:06 -20.77962 139.96802 3521 ft 159 kts 105°
2026-04-26 10:06 -20.78243 139.97946 3518 ft 159 kts 105°
2026-04-26 10:06 -20.78403 139.99114 3519 ft 160 kts 97°
2026-04-26 10:06 -20.78501 140.00305 3521 ft 160 kts 96°
2026-04-26 10:07 -20.78597 140.01494 3521 ft 160 kts 97°
2026-04-26 10:07 -20.78693 140.02686 3516 ft 160 kts 98°
2026-04-26 10:07 -20.78790 140.03865 3514 ft 161 kts 98°
2026-04-26 10:07 -20.78888 140.05069 3518 ft 161 kts 97°
2026-04-26 10:08 -20.78986 140.06255 3519 ft 161 kts 97°
2026-04-26 10:08 -20.79035 140.07465 3510 ft 163 kts 87°
2026-04-26 10:08 -20.78826 140.08643 3514 ft 163 kts 81°
2026-04-26 10:08 -20.78576 140.09834 3514 ft 163 kts 81°
2026-04-26 10:09 -20.78328 140.11020 3510 ft 163 kts 81°
2026-04-26 10:09 -20.78083 140.12204 3507 ft 163 kts 82°
2026-04-26 10:09 -20.77836 140.13396 3505 ft 163 kts 81°
2026-04-26 10:09 -20.77593 140.14566 3507 ft 163 kts 82°
2026-04-26 10:10 -20.77355 140.15762 3499 ft 163 kts 82°
2026-04-26 10:10 -20.77121 140.16943 3497 ft 163 kts 82°
2026-04-26 10:10 -20.76887 140.18126 3500 ft 163 kts 82°
2026-04-26 10:10 -20.76654 140.19307 3500 ft 163 kts 82°
2026-04-26 10:11 -20.76418 140.20503 3498 ft 163 kts 82°
2026-04-26 10:11 -20.76184 140.21684 3504 ft 163 kts 82°
2026-04-26 10:11 -20.75848 140.22839 3501 ft 166 kts 68°
2026-04-26 10:11 -20.75241 140.23909 3499 ft 168 kts 63°
2026-04-26 10:12 -20.74609 140.24962 3500 ft 168 kts 63°
2026-04-26 10:12 -20.73983 140.26007 3496 ft 168 kts 63°
2026-04-26 10:12 -20.73222 140.26971 3491 ft 174 kts 43°
2026-04-26 10:12 -20.72176 140.27637 3495 ft 177 kts 34°
2026-04-26 10:13 -20.71059 140.28221 3449 ft 177 kts 31°
2026-04-26 10:13 -20.69946 140.28763 3349 ft 174 kts 31°
2026-04-26 10:13 -20.68843 140.29286 3247 ft 173 kts 30°
2026-04-26 10:13 -20.67730 140.29810 3171 ft 170 kts 30°
2026-04-26 10:14 -20.66671 140.30306 3180 ft 164 kts 31°
2026-04-26 10:14 -20.65629 140.30792 3181 ft 160 kts 31°
2026-04-26 10:14 -20.64612 140.31268 3181 ft 158 kts 31°
2026-04-26 10:14 -20.63609 140.31740 3184 ft 157 kts 31°
2026-04-26 10:15 -20.62594 140.32214 3182 ft 157 kts 31°
2026-04-26 10:15 -20.61592 140.32684 3178 ft 157 kts 31°
2026-04-26 10:15 -20.60582 140.33156 3177 ft 157 kts 31°
2026-04-26 10:15 -20.59580 140.33624 3178 ft 157 kts 31°
2026-04-26 10:16 -20.58573 140.34096 3179 ft 158 kts 31°
2026-04-26 10:16 -20.57570 140.34566 3178 ft 157 kts 31°
2026-04-26 10:16 -20.56694 140.35193 3180 ft 146 kts 62°
2026-04-26 10:16 -20.56500 140.36192 3182 ft 135 kts 103°
2026-04-26 10:17 -20.56852 140.37102 3180 ft 134 kts 119°
2026-04-26 10:17 -20.57344 140.37944 3179 ft 133 kts 123°
2026-04-26 10:17 -20.57896 140.38779 3042 ft 138 kts 125°
2026-04-26 10:17 -20.58433 140.39549 2888 ft 121 kts 126°
2026-04-26 10:18 -20.58923 140.40234 2760 ft 109 kts 126°
2026-04-26 10:18 -20.59360 140.40837 2632 ft 98 kts 126°
2026-04-26 10:18 -20.59771 140.41406 2522 ft 96 kts 127°
2026-04-26 10:18 -20.60187 140.41980 2402 ft 97 kts 126°
2026-04-26 10:19 -20.60600 140.42546 2291 ft 97 kts 126°
2026-04-26 10:19 -20.61022 140.43124 2173 ft 98 kts 127°
2026-04-26 10:19 -20.61442 140.43700 2046 ft 99 kts 127°
2026-04-26 10:19 -20.61872 140.44286 1915 ft 99 kts 126°
2026-04-26 10:20 -20.62284 140.44847 1794 ft 95 kts 126°
2026-04-26 10:20 -20.62557 140.45221 1708 ft 93 kts 126°
2026-04-26 10:20 -20.63072 140.45923 1555 ft 86 kts 126°
2026-04-26 10:20 -20.63431 140.46416 1445 ft 83 kts 126°
2026-04-26 10:21 -20.63779 140.46890 1332 ft 79 kts 127°
2026-04-26 10:21 -20.64114 140.47348 1229 ft 74 kts 126°
2026-04-26 10:21 -20.64429 140.47778 1132 ft 73 kts 127°
2026-04-26 10:21 -20.64753 140.48221 1046 ft 77 kts 126°
2026-04-26 10:22 -20.65087 140.48677 949 ft 78 kts 126°
2026-04-26 10:22 -20.65426 140.49139 850 ft 79 kts 127°
2026-04-26 10:22 -20.65769 140.49608 749 ft 79 kts 127°
2026-04-26 10:22 -20.66105 140.50070 648 ft 77 kts 127°
2026-04-26 10:23 -20.66400 140.50473 631 ft 52 kts 127°
2026-04-26 10:23 -20.66573 140.50709 633 ft 25 kts 128°
2026-04-26 10:23 -20.66652 140.50809 634 ft 12 kts 168°
2026-04-26 10:23 -20.66694 140.50742 635 ft 13 kts 246°
2026-04-26 10:24 -20.66734 140.50650 635 ft 10 kts 208°
2026-04-26 10:24 -20.66791 140.50667 635 ft 7 kts 149°
2026-04-26 10:24 -20.66835 140.50697 635 ft 7 kts 145°
2026-04-26 10:24 -20.66872 140.50726 636 ft 5 kts 142°
2026-04-26 10:25 -20.66904 140.50745 637 ft 5 kts 154°
2026-04-26 10:25 -20.66919 140.50763 638 ft 3 kts 35°
2026-04-26 10:25 -20.66912 140.50764 638 ft 0 kts 359°